Regional Weather Roundup
Issued by NWS

Home | Current Version | Previous Version | Text Only | Print | Product List | Glossary Off
Versions: 1 2 3 4 5 6 7 8 9 10 11 12 13 14 15 16 17 18 19 20 21 22 23 24 25 26 27

000
ASUS45 KBOU 230807
RWRCO

WEATHER ROUNDUP FOR COLORADO
NATIONAL WEATHER SERVICE DENVER/BOULDER CO
200 AM MDT WED AUG 23 2017

NOTE: "FAIR" INDICATES FEW OR NO CLOUDS BELOW 12000 FEET WITH NO
SIGNIFICANT WEATHER AND/OR OBSTRUCTIONS TO VISIBILITY.

COZ001>005-013-030-031-230900-
...NORTHWEST COLORADO...

CITY           SKY/WX    TMP DP  RH WIND       PRES   REMARKS
CRAIG          FAIR      52  41  66 CALM      30.32R
HAYDEN         FAIR      58  39  49 NW5       30.35R
MEEKER         FAIR      53  43  68 CALM      30.34R
RABBIT EARS PA CLOUDY    54  34  47 CALM      30.62R
STEAMBOAT SPGS FAIR      56  41  58 NW3       30.36S
WALDEN         FAIR      46  36  66 SE9       30.45R
$$

COZ006>008-011-230900-
...WEST CENTRAL VALLEYS...

CITY           SKY/WX    TMP DP  RH WIND       PRES   REMARKS
GRAND JUNCTION FAIR      69  49  48 E12       30.22S
MONTROSE       FAIR      57  47  69 S3        30.32S
EAGLE          FAIR      55  40  56 E3        30.39R
RIFLE          FAIR      59  43  55 CALM      30.29R
DELTA          FAIR      64  46  52 E3        30.27S
NUCLA          FAIR      59  43  55 E9        30.34S
$$

COZ017>023-064>068-230900-
...SOUTHWEST COLORADO...

CITY           SKY/WX    TMP DP  RH WIND       PRES   REMARKS
DURANGO        MOCLDY    59  45  59 W8        30.38S
CORTEZ         FAIR      54  49  83 CALM      30.30S
PAGOSA SPRINGS FAIR      49  47  92 CALM      30.45F
TELLURIDE      FAIR      50  43  76 SE6       30.55S
WOLF CREEK PAS FAIR      45  36  70 S6        30.76F
$$

COZ009-010-012-014-032>034-037-058>063-230900-
...CENTRAL COLORADO...

CITY           SKY/WX    TMP DP  RH WIND       PRES   REMARKS
ASPEN          MOCLDY    52  41  66 SW7       30.43S
BUENA VISTA    FAIR      49  44  83 W5        30.47S
COPPER MTN     FAIR      52  32  46 CALM      30.71F
BERTHOUD PASS  MOCLDY    43  36  75 NW6       30.74S
COTTONWOOD PAS FAIR      54  39  58 SW7       30.58S
GUNNISON       FAIR      48  42  80 N7        30.48S
KREMMLING      FAIR      59  43  55 CALM      30.42S
LEADVILLE      FAIR      40  36  86 NE6       30.57S
SALIDA         FAIR      54  45  70 SW6       30.51F
SUNLIGHT       FAIR      46  34  61 CALM      30.66S
WILKERSON PASS FAIR      45  36  70 W8        30.68S
$$

COZ069>075-230900-
...SAN LUIS VALLEY/SANGRE DE CRISTO MOUNTAINS...

CITY           SKY/WX    TMP DP  RH WIND       PRES   REMARKS
ALAMOSA        FAIR      50  48  93 SE6       30.44F
DEL NORTE      FAIR      50  45  84 W12       30.48S
LA VETA PASS   NOT AVBL
SAGUACHE         N/A    N/A N/A N/A MISG        N/A
$$

COZ035-036-038>040-230900-
...NORTHERN COLORADO FRONT RANGE...

CITY           SKY/WX    TMP DP  RH WIND       PRES   REMARKS
DENVER INTL AP FAIR      64  47  53 S14       30.19S
DMNS CITY PARK   N/A     67  42  38 SW3       30.20R
AURORA         PTCLDY    66  46  48 S14       30.22S
FRONT RANGE AP FAIR      66  50  55 S13G20    30.21F
ERIE MUNI ARPT FAIR      58  47  67 CALM      30.23S
BOULDER MUN AP FAIR      64  46  52 CALM      30.18S
CENTENNIAL     FAIR      65  47  52 S14       30.24S
BROOMFIELD     FAIR      64  45  48 NW8       30.22S
FORT COLLINS   FAIR      61  57  87 N3        30.18S
LONGMONT       FAIR      59  48  67 W3        30.20S
$$

COZ041-046-047-076>085-087-088-230900-
...PIKES PEAK/PALMER DIVIDE AND SOUTHERN FOOTHILLS...

CITY           SKY/WX    TMP DP  RH WIND       PRES   REMARKS
COLO. SPRINGS  FAIR      58  50  75 NE5       30.33S
A. F. ACADEMY  CLOUDY    58  49  72 CALM      30.33F
SCHRIEVER AFB  FAIR      56  48  75 CALM      30.32F
CHEYENNE MTN   FAIR      58  49  70 NW8       30.30F
ELLICOTT       FAIR     N/A N/A N/A S12       30.30F
FALCON         FAIR      56  48  74 S13       30.37S
FORT CARSON    FAIR      55  51  85 NW7       30.29F
LIMON          FAIR      55  54  96 S8        30.27F
MONUMENT HILL  FAIR      55  46  71 S13       30.36S
CANON CITY     CLEAR     64  52  63 W10       30.26S
WALSENBURG     FAIR      61  50  67 SW7       30.31F
TRINIDAD       FAIR      56  49  77 SW9       30.31F
$$

COZ042>045-048>051-090-091-230900-
...NORTHEAST COLORADO...

CITY           SKY/WX    TMP DP  RH WIND       PRES   REMARKS
GREELEY ARPT   FAIR      56  55  97 N5        30.17R
AKRON          FAIR      62  53  72 S15       30.20F
BURLINGTON     FAIR      58  52  80 S12       30.23F
WRAY           FAIR      63  46  55 S12       30.21R
YUMA           FAIR      57  45  62 S8        30.20F
STERLING       NOT AVBL
HOLYOKE        FAIR      59  50  72 SE9       30.20F
FORT MORGAN    FAIR      61  54  76 SE8       30.17S
$$

COZ086-089-092>099-230900-
...SOUTHEAST COLORADO...

CITY           SKY/WX    TMP DP  RH WIND       PRES   REMARKS
PUEBLO         FAIR      57  50  77 N5        30.23S
LA JUNTA       FAIR      65  58  78 S6        30.23F
LAMAR          FAIR      60  55  83 CALM      30.20F
SPRINGFIELD      N/A     60  60 100 S7        30.26F
$$




USA.gov is the U.S. government's official web portal to all federal, state and local government web resources and services.